Starlink 11249

operational
NORAD ID: 60728 Int'l Des: 2024-152 Owner: SPXS Country: US Constellation: starlink
LEOCIRCULAR

About Starlink 11249

Description loading...

Live Position

Loading 3D Globe...

Upcoming Passes

Altitude History

Altitude vs Time

uPlot chart will show altitude changes over time

Two-Line Element Set

1 60728U 24152J 26037.85282980 .00001741 00000-0 19214-4 0 9991
2 60728 53.1599 268.1322 0001025 99.2484 260.8650 15.69729341 83998
Epoch: Feb 6, 2026 • Age: 4 hours

Current Status

Altitude 367.2 km
Velocity 7.69 km/s
Sub-Earth Point -24.47°S, 96.42°E
Launch Date Aug 28, 2024
Age 1.4 years
Type internet

Technical Details

Classification Payload
Mass 960.00 kg
Dry Mass 910.00 kg
Total Mass 960.00 kg
Length 0.30 m
Diameter 4.10 m
Span 29.00 m
Shape Box + pan
Manufacturer SPXS
Bus Type Starlink V2MD
Phase Status In Orbit
Owner/State SPXS/US

Large Constellations

Loading constellations...